| time (UTC) | temp F | wind direction | speed knots | gust knots | rain 1hr in | rain 24hr in | rain mn in | humidity % | barometer mb |
| 20260507075518 | 70 | 177 | 2.6 | 5.2 | 0.00 | 0.00 | 0.00 | 55 | 1014.5 |
| 20260507074534 | 70 | 165 | 1.7 | 3.5 | 0.00 | 0.00 | 0.00 | 55 | 1014.5 |
| 20260507073531 | 70 | 159 | 1.7 | 5.2 | 0.00 | 0.00 | 0.00 | 53 | 1014.6 |
| 20260507072527 | 69 | 171 | 3.5 | 5.2 | 0.00 | 0.00 | 0.00 | 56 | 1014.7 |
| 20260507071523 | 68 | 164 | 1.7 | 5.2 | 0.00 | 0.00 | 0.00 | 56 | 1014.7 |
| 20260507070525 | 67 | 180 | 2.6 | 5.2 | 0.00 | 0.00 | 0.00 | 58 | 1014.7 |
| 20260507065555 | 67 | 176 | 3.5 | 7.8 | 0.00 | 0.00 | 0.00 | 58 | 1014.6 |
| 20260507064532 | 65 | 177 | 2.6 | 5.2 | 0.00 | 0.00 | 0.00 | 60 | 1014.7 |
| 20260507063528 | 65 | 161 | 1.7 | 6.1 | 0.00 | 0.00 | 0.00 | 61 | 1014.6 |
| 20260507062525 | 64 | 176 | 2.6 | 7.8 | 0.00 | 0.00 | 0.00 | 61 | 1014.7 |
| 20260507061521 | 63 | 170 | 3.5 | 6.1 | 0.00 | 0.00 | 0.00 | 62 | 1014.7 |
| 20260507060517 | 63 | 182 | 4.3 | 7.8 | 0.00 | 0.00 | 0.00 | 62 | 1014.8 |
| 20260507055553 | 62 | 171 | 2.6 | 6.1 | 0.00 | 0.00 | 0.00 | 63 | 1014.9 |
| 20260507054529 | 62 | 177 | 2.6 | 6.1 | 0.00 | 0.00 | 0.00 | 64 | 1015.0 |
| 20260507053526 | 61 | 165 | 3.5 | 7.8 | 0.00 | 0.00 | 0.00 | 64 | 1014.9 |
| 20260507052542 | 60 | 179 | 2.6 | 7.0 | 0.00 | 0.00 | 0.00 | 67 | 1014.9 |
| 20260507051518 | 60 | 180 | 4.3 | 7.8 | 0.00 | 0.00 | 0.00 | 67 | 1014.9 |
| 20260507050534 | 59 | 175 | 2.6 | 6.1 | 0.00 | 0.00 | 0.00 | 69 | 1014.8 |
| 20260507045530 | 58 | 165 | 3.5 | 5.2 | 0.00 | 0.00 | 0.00 | 69 | 1014.7 |
| 20260507044546 | 58 | 151 | 2.6 | 4.3 | 0.00 | 0.00 | 0.00 | 71 | 1014.7 |
| 20260507043522 | 57 | 159 | 3.5 | 5.2 | 0.00 | 0.00 | 0.00 | 72 | 1014.6 |
| 20260507042539 | 56 | 159 | 2.6 | 4.3 | 0.00 | 0.00 | 0.00 | 73 | 1014.5 |
| 20260507041555 | 56 | 152 | 2.6 | 4.3 | 0.00 | 0.00 | 0.00 | 74 | 1014.4 |
| 20260507040531 | 55 | 136 | 1.7 | 3.5 | 0.00 | 0.00 | 0.00 | 75 | 1014.5 |
| 20260507035527 | 53 | 135 | 1.7 | 3.5 | 0.00 | 0.00 | 0.00 | 77 | 1014.4 |
| 20260507034524 | 52 | 150 | 2.6 | 4.3 | 0.00 | 0.00 | 0.00 | 78 | 1014.4 |
| 20260507033520 | 52 | 152 | 2.6 | 4.3 | 0.00 | 0.00 | 0.00 | 78 | 1014.3 |
| 20260507032517 | 52 | 152 | 2.6 | 4.3 | 0.00 | 0.00 | 0.00 | 78 | 1014.1 |
| 20260507031532 | 52 | 159 | 3.5 | 4.3 | 0.00 | 0.00 | 0.00 | 78 | 1014.0 |
| 20260507030549 | 52 | 149 | 2.6 | 3.5 | 0.00 | 0.00 | 0.00 | 79 | 1014.0 |
| 20260507025524 | 52 | 146 | 2.6 | 3.5 | 0.00 | 0.00 | 0.00 | 78 | 1014.1 |
| 20260507024521 | 52 | 159 | 3.5 | 4.3 | 0.00 | 0.00 | 0.00 | 78 | 1013.9 |
| 20260507022534 | 52 | 155 | 3.5 | 4.3 | 0.00 | 0.00 | 0.00 | 78 | 1013.9 |
| 20260507021530 | 52 | 142 | 2.6 | 4.3 | 0.00 | 0.00 | 0.00 | 79 | 1014.0 |
| 20260507020525 | 51 | 138 | 2.6 | 3.5 | 0.00 | 0.00 | 0.00 | 80 | 1014.0 |
| 20260507015542 | 51 | 129 | 1.7 | 2.6 | 0.00 | 0.00 | 0.00 | 79 | 1014.0 |
| 20260507014518 | 51 | 109 | 1.7 | 1.7 | 0.00 | 0.00 | 0.00 | 79 | 1013.9 |
| 20260507013535 | 52 | 131 | 1.7 | 2.6 | 0.00 | 0.00 | 0.00 | 78 | 1014.0 |
| 20260507012531 | 52 | 138 | 1.7 | 2.6 | 0.00 | 0.00 | 0.00 | 77 | 1014.0 |
| 20260507011527 | 52 | 123 | 1.7 | 2.6 | 0.00 | 0.00 | 0.00 | 76 | 1013.9 |
| 20260507010523 | 53 | 135 | 1.7 | 2.6 | 0.00 | 0.00 | 0.00 | 75 | 1013.9 |
| 20260507005519 | 53 | 136 | 1.7 | 2.6 | 0.00 | 0.00 | 0.00 | 75 | 1013.8 |
| 20260507004535 | 54 | 105 | 1.7 | 1.7 | 0.00 | 0.00 | 0.00 | 74 | 1013.8 |
| 20260507003532 | 54 | 156 | 1.7 | 2.6 | 0.00 | 0.00 | 0.00 | 74 | 1013.5 |
| 20260507002528 | 54 | 133 | 1.7 | 2.6 | 0.00 | 0.00 | 0.00 | 75 | 1013.7 |
| 20260507001523 | 54 | 106 | 1.7 | 1.7 | 0.00 | 0.00 | 0.00 | 74 | 1013.9 |
| 20260507000521 | 55 | 99 | 1.7 | 2.6 | 0.00 | 0.00 | 0.00 | 72 | 1013.8 |
| 20260506235516 | 55 | 168 | 0.9 | 3.5 | 0.00 | 0.00 | 0.00 | 71 | 1013.9 |
| 20260506234554 | 55 | 161 | 2.6 | 3.5 | 0.00 | 0.00 | 0.00 | 71 | 1013.7 |
| 20260506233529 | 56 | 146 | 1.7 | 2.6 | 0.00 | 0.00 | 0.00 | 71 | 1013.7 |
| 20260506232526 | 56 | 147 | 2.6 | 4.3 | 0.00 | 0.00 | 0.00 | 70 | 1013.6 |
| 20260506231521 | 56 | 141 | 2.6 | 3.5 | 0.00 | 0.00 | 0.00 | 70 | 1013.4 |
| 20260506230517 | 55 | 134 | 1.7 | 2.6 | 0.00 | 0.00 | 0.00 | 72 | 1013.5 |
| 20260506225534 | 56 | 124 | 1.7 | 2.6 | 0.00 | 0.00 | 0.00 | 72 | 1013.3 |
| 20260506224529 | 56 | 113 | 1.7 | 4.3 | 0.00 | 0.00 | 0.00 | 71 | 1013.3 |
| 20260506223526 | 56 | 115 | 1.7 | 3.5 | 0.00 | 0.00 | 0.00 | 70 | 1013.3 |
| 20260506222522 | 57 | 112 | 1.7 | 4.3 | 0.00 | 0.00 | 0.00 | 68 | 1013.1 |
| 20260506221518 | 58 | 113 | 2.6 | 4.3 | 0.00 | 0.00 | 0.00 | 66 | 1013.0 |
| 20260506220534 | 61 | 115 | 2.6 | 3.5 | 0.00 | 0.00 | 0.00 | 61 | 1012.9 |
| 20260506215531 | 62 | 151 | 2.6 | 7.0 | 0.00 | 0.00 | 0.00 | 59 | 1012.9 |
| 20260506214527 | 61 | 156 | 2.6 | 7.8 | 0.00 | 0.00 | 0.00 | 59 | 1012.9 |
| 20260506213524 | 60 | 140 | 1.7 | 2.6 | 0.00 | 0.00 | 0.00 | 61 | 1012.9 |
| 20260506212519 | 60 | 132 | 1.7 | 3.5 | 0.00 | 0.00 | 0.00 | 61 | 1012.8 |
| 20260506211535 | 61 | 119 | 1.7 | 2.6 | 0.00 | 0.00 | 0.00 | 59 | 1012.7 |
| 20260506210532 | 63 | 135 | 1.7 | 4.3 | 0.00 | 0.00 | 0.00 | 57 | 1012.6 |
| 20260506205529 | 64 | 154 | 1.7 | 5.2 | 0.00 | 0.00 | 0.00 | 56 | 1012.4 |
| 20260506204524 | 64 | 148 | 1.7 | 3.5 | 0.00 | 0.00 | 0.00 | 55 | 1012.4 |
| 20260506203521 | 65 | 160 | 2.6 | 5.2 | 0.00 | 0.00 | 0.00 | 54 | 1012.3 |
| 20260506202535 | 66 | 167 | 3.5 | 7.0 | 0.00 | 0.00 | 0.00 | 52 | 1012.4 |
| 20260506201552 | 66 | 177 | 4.3 | 8.7 | 0.00 | 0.00 | 0.00 | 51 | 1012.3 |
| 20260506200548 | 67 | 172 | 4.3 | 9.6 | 0.00 | 0.00 | 0.00 | 51 | 1012.2 |
| 20260506195525 | 67 | 172 | 3.5 | 7.8 | 0.00 | 0.00 | 0.00 | 50 | 1012.2 |
| 20260506194521 | 67 | 175 | 5.2 | 10.4 | 0.00 | 0.00 | 0.00 | 49 | 1012.0 |
| 20260506193517 | 68 | 171 | 4.3 | 7.8 | 0.00 | 0.00 | 0.00 | 48 | 1012.1 |
| 20260506192553 | 68 | 174 | 5.2 | 11.3 | 0.00 | 0.00 | 0.00 | 47 | 1012.0 |
| 20260506191529 | 69 | 170 | 4.3 | 9.6 | 0.00 | 0.00 | 0.00 | 47 | 1012.0 |
| 20260506190526 | 69 | 172 | 4.3 | 9.6 | 0.00 | 0.00 | 0.00 | 46 | 1011.9 |
| 20260506185522 | 69 | 174 | 4.3 | 10.4 | 0.00 | 0.00 | 0.00 | 46 | 1011.9 |
| 20260506184519 | 69 | 173 | 5.2 | 9.6 | 0.00 | 0.00 | 0.00 | 46 | 1011.7 |
| 20260506183555 | 69 | 161 | 3.5 | 7.0 | 0.00 | 0.00 | 0.00 | 47 | 1011.7 |
| 20260506182531 | 69 | 170 | 3.5 | 7.0 | 0.00 | 0.00 | 0.00 | 47 | 1011.6 |
| 20260506181527 | 69 | 169 | 3.5 | 7.0 | 0.00 | 0.00 | 0.00 | 47 | 1011.6 |
| 20260506180523 | 69 | 171 | 3.5 | 7.8 | 0.00 | 0.00 | 0.00 | 46 | 1011.5 |
| 20260506175519 | 70 | 158 | 2.6 | 3.5 | 0.00 | 0.00 | 0.00 | 46 | 1011.3 |
| 20260506174536 | 71 | 173 | 2.6 | 4.3 | 0.00 | 0.00 | 0.00 | 44 | 1011.1 |
| 20260506173532 | 72 | 172 | 3.5 | 6.1 | 0.00 | 0.00 | 0.00 | 42 | 1011.1 |
| 20260506172527 | 73 | 169 | 2.6 | 5.2 | 0.00 | 0.00 | 0.00 | 42 | 1011.0 |
| 20260506171550 | 74 | 178 | 3.5 | 7.0 | 0.00 | 0.00 | 0.00 | 40 | 1011.0 |
| 20260506170520 | 75 | 177 | 2.6 | 6.1 | 0.00 | 0.00 | 0.00 | 40 | 1010.8 |
| 20260506165517 | 76 | 177 | 4.3 | 8.7 | 0.00 | 0.00 | 0.00 | 39 | 1010.8 |
| 20260506164533 | 76 | 182 | 4.3 | 9.6 | 0.00 | 0.00 | 0.00 | 38 | 1010.8 |
| 20260506163529 | 77 | 185 | 3.5 | 11.3 | 0.00 | 0.00 | 0.00 | 37 | 1010.6 |
| 20260506162525 | 78 | 194 | 6.1 | 15.6 | 0.00 | 0.00 | 0.00 | 36 | 1010.7 |
| 20260506161521 | 78 | 186 | 7.0 | 14.8 | 0.00 | 0.00 | 0.00 | 35 | 1010.7 |
| 20260506160517 | 79 | 195 | 9.6 | 20.0 | 0.00 | 0.00 | 0.00 | 34 | 1010.9 |
| 20260506155534 | 79 | 199 | 10.4 | 17.4 | 0.00 | 0.00 | 0.00 | 34 | 1011.0 |
| 20260506154531 | 80 | 194 | 9.6 | 15.6 | 0.00 | 0.00 | 0.00 | 34 | 1011.0 |
| 20260506153526 | 81 | 194 | 6.1 | 13.0 | 0.00 | 0.00 | 0.00 | 32 | 1011.0 |
| 20260506152527 | 81 | 190 | 4.3 | 9.6 | 0.00 | 0.00 | 0.00 | 31 | 1011.0 |
| 20260506151518 | 81 | 191 | 7.0 | 11.3 | 0.00 | 0.00 | 0.00 | 30 | 1011.1 |
| 20260506150536 | 81 | 189 | 5.2 | 11.3 | 0.00 | 0.00 | 0.00 | 32 | 1011.1 |
| 20260506145552 | 82 | 181 | 4.3 | 9.6 | 0.00 | 0.00 | 0.00 | 31 | 1011.0 |
| 20260506144528 | 82 | 177 | 2.6 | 8.7 | 0.00 | 0.00 | 0.00 | 31 | 1011.0 |
| 20260506143522 | 82 | 180 | 2.6 | 6.1 | 0.00 | 0.00 | 0.00 | 30 | 1011.1 |
| 20260506142539 | 82 | 162 | 3.5 | 9.6 | 0.00 | 0.00 | 0.00 | 29 | 1010.9 |
| 20260506141555 | 82 | 182 | 2.6 | 7.8 | 0.00 | 0.00 | 0.00 | 31 | 1011.0 |
| 20260506140532 | 83 | 182 | 2.6 | 9.6 | 0.00 | 0.00 | 0.00 | 31 | 1011.0 |
| 20260506135528 | 83 | 176 | 2.6 | 9.6 | 0.00 | 0.00 | 0.00 | 30 | 1010.9 |
| 20260506134525 | 83 | 186 | 2.6 | 9.6 | 0.00 | 0.00 | 0.00 | 30 | 1010.9 |
| 20260506133520 | 83 | 178 | 3.5 | 5.2 | 0.00 | 0.00 | 0.00 | 29 | 1011.0 |
| 20260506132516 | 83 | 181 | 2.6 | 6.1 | 0.00 | 0.00 | 0.00 | 28 | 1011.1 |
| 20260506131533 | 83 | 191 | 2.6 | 9.6 | 0.00 | 0.00 | 0.00 | 29 | 1011.0 |
| 20260506130529 | 83 | 188 | 3.5 | 8.7 | 0.00 | 0.00 | 0.00 | 27 | 1011.2 |
| 20260506125526 | 82 | 189 | 3.5 | 9.6 | 0.00 | 0.00 | 0.00 | 28 | 1011.2 |
| 20260506124521 | 83 | 187 | 5.2 | 11.3 | 0.00 | 0.00 | 0.00 | 27 | 1011.4 |
| 20260506123542 | 83 | 190 | 3.5 | 9.6 | 0.00 | 0.00 | 0.00 | 28 | 1011.5 |
| 20260506122534 | 82 | 198 | 4.3 | 10.4 | 0.00 | 0.00 | 0.00 | 28 | 1011.7 |
| 20260506121550 | 83 | 194 | 5.2 | 10.4 | 0.00 | 0.00 | 0.00 | 27 | 1011.8 |
| 20260506120531 | 82 | 181 | 3.5 | 11.3 | 0.00 | 0.00 | 0.00 | 28 | 1011.8 |
| 20260506115523 | 82 | 193 | 5.2 | 12.2 | 0.00 | 0.00 | 0.00 | 27 | 1011.9 |
| 20260506114543 | 82 | 195 | 6.1 | 13.9 | 0.00 | 0.00 | 0.00 | 26 | 1012.1 |
| 20260506113534 | 83 | 186 | 4.3 | 12.2 | 0.00 | 0.00 | 0.00 | 27 | 1012.1 |
| 20260506112531 | 82 | 185 | 4.3 | 12.2 | 0.00 | 0.00 | 0.00 | 28 | 1012.2 |
| 20260506111528 | 82 | 188 | 7.0 | 15.6 | 0.00 | 0.00 | 0.00 | 27 | 1012.3 |
| 20260506110545 | 82 | 189 | 5.2 | 11.3 | 0.00 | 0.00 | 0.00 | 28 | 1012.5 |
| 20260506105540 | 82 | 193 | 6.1 | 14.8 | 0.00 | 0.00 | 0.00 | 28 | 1012.6 |
| 20260506104536 | 82 | 188 | 5.2 | 12.2 | 0.00 | 0.00 | 0.00 | 28 | 1012.7 |
| 20260506103531 | 82 | 192 | 3.5 | 8.7 | 0.00 | 0.00 | 0.00 | 36 | 1012.8 |
| 20260506102528 | 81 | 201 | 4.3 | 10.4 | 0.00 | 0.00 | 0.00 | 34 | 1012.9 |
| 20260506101524 | 80 | 181 | 3.5 | 13.0 | 0.00 | 0.00 | 0.00 | 41 | 1012.9 |
| 20260506100521 | 80 | 199 | 2.6 | 6.1 | 0.00 | 0.00 | 0.00 | 41 | 1012.8 |
| 20260506095517 | 79 | 185 | 1.7 | 5.2 | 0.00 | 0.00 | 0.00 | 42 | 1012.9 |
| 20260506094552 | 79 | 183 | 2.6 | 6.1 | 0.00 | 0.00 | 0.00 | 43 | 1013.2 |
| 20260506093529 | 78 | 186 | 3.5 | 7.8 | 0.00 | 0.00 | 0.00 | 44 | 1013.2 |
| 20260506092545 | 77 | 170 | 1.7 | 4.3 | 0.00 | 0.00 | 0.00 | 46 | 1013.3 |
| 20260506091522 | 76 | 179 | 1.7 | 7.0 | 0.00 | 0.00 | 0.00 | 45 | 1013.4 |
| 20260506090538 | 75 | 205 | 0.9 | 4.3 | 0.00 | 0.00 | 0.00 | 48 | 1013.4 |
| 20260506085534 | 75 | 198 | 1.7 | 5.2 | 0.00 | 0.00 | 0.00 | 48 | 1013.4 |
| 20260506084529 | 74 | 171 | 1.7 | 4.3 | 0.00 | 0.00 | 0.00 | 50 | 1013.4 |
| 20260506083526 | 74 | 103 | 1.7 | 6.1 | 0.00 | 0.00 | 0.00 | 50 | 1013.4 |
| 20260506082523 | 73 | 124 | 1.7 | 5.2 | 0.00 | 0.00 | 0.00 | 50 | 1013.5 |
| 20260506081519 | 73 | 159 | 0.9 | 3.5 | 0.00 | 0.00 | 0.00 | 50 | 1013.5 |
| 20260506080535 | 71 | 162 | 0.9 | 3.5 | 0.00 | 0.00 | 0.00 | 50 | 1013.5 |